H1 CPF 2 NER 2021 11 7 9 311 01 glonass122 H2 1004103 9122 37139 2021 11 7 0 0 0 2021 11 10 23 45 0 900 1 1 0 0 0 1 H9 10 0 59525 0.00000 0 -23982067.029 -7577785.594 -3825362.011 10 0 59525 900.00000 0 -24275397.361 -7571739.493 -635076.721 10 0 59525 1800.00000 0 -24187670.193 -7436224.347 2567643.857 10 0 59525 2700.00000 0 -23706586.841 -7224181.305 5720046.433 10 0 59525 3600.00000 0 -22833048.045 -6990500.238 8760357.279 10 0 59525 4500.00000 0 -21581222.026 -6789437.396 11629026.226 10 0 59525 5400.00000 0 -19978062.156 -6672069.189 14269923.321 10 0 59525 6300.00000 0 -18062295.231 -6683894.031 16631461.614 10 0 59525 7200.00000 0 -15882924.808 -6862687.189 18667621.597 10 0 59525 8100.00000 0 -13497315.156 -7236701.847 20338855.796 10 0 59525 9000.00000 0 -10968939.315 -7823293.695 21612855.330 10 0 59525 9900.00000 0 -8364888.717 -8628027.086 22465163.915 10 0 59525 10800.00000 0 -5753251.116 -9644299.374 22879628.840 10 0 59525 11700.00000 0 -3200467.990 -10853497.178 22848682.304 10 0 59525 12600.00000 0 -768782.307 -12225675.381 22373450.396 10 0 59525 13500.00000 0 1486117.777 -13720727.476 21463690.678 10 0 59525 14400.00000 0 3517163.206 -15289995.474 20137562.666 10 0 59525 15300.00000 0 5287593.433 -16878249.658 18421238.652 10 0 59525 16200.00000 0 6772204.732 -18425953.772 16348364.977 10 0 59525 17100.00000 0 7958109.993 -19871720.331 13959386.228 10 0 59525 18000.00000 0 8844983.024 -21154853.626 11300746.949 10 0 59525 18900.00000 0 9444781.670 -22217875.427 8423987.062 10 0 59525 19800.00000 0 9780965.217 -23008929.768 5384748.554 10 0 59525 20700.00000 0 9887241.714 -23483968.815 2241712.135 10 0 59525 21600.00000 0 9805899.597 -23608631.176 -944516.782 10 0 59525 22500.00000 0 9585794.258 -23359736.789 -4112553.003 10 0 59525 23400.00000 0 9280073.615 -22726338.096 -7201387.252 10 0 59525 24300.00000 0 8943736.886 -21710285.106 -10151532.789 10 0 59525 25200.00000 0 8631127.093 -20326281.295 -12906143.342 10 0 59525 26100.00000 0 8393460.344 -18601427.552 -15412083.238 10 0 59525 27000.00000 0 8276493.415 -16574271.663 -17620931.453 10 0 59525 27900.00000 0 8318425.801 -14293400.363 -19489902.256 10 0 59525 28800.00000 0 8548123.227 -11815629.350 -20982666.120 10 0 59525 29700.00000 0 8983737.106 -9203862.759 -22070056.006 10 0 59525 30600.00000 0 9631778.955 -6524707.065 -22730645.532 10 0 59525 31500.00000 0 10486690.764 -3845934.977 -22951187.185 10 0 59525 32400.00000 0 11530932.542 -1233901.427 -22726900.694 10 0 59525 33300.00000 0 12735587.353 1248983.252 -22061603.740 10 0 59525 34200.00000 0 14061462.759 3546619.115 -20967679.677 10 0 59525 35100.00000 0 15460646.743 5611323.048 -19465879.601 10 0 59525 36000.00000 0 16878456.600 7405587.161 -17584959.147 10 0 59525 36900.00000 0 18255701.715 8903413.841 -15361153.740 10 0 59525 37800.00000 0 19531166.759 10091169.236 -12837499.549 10 0 59525 38700.00000 0 20644210.957 10967916.851 -10063011.037 10 0 59525 39600.00000 0 21537372.709 11545214.794 -7091729.840 10 0 59525 40500.00000 0 22158867.209 11846383.541 -3981663.183 10 0 59525 41400.00000 0 22464868.223 11905274.311 -793633.301 10 0 59525 42300.00000 0 22421473.655 11764590.466 2409937.711 10 0 59525 43200.00000 0 22006267.877 11473834.564 5566281.231 10 0 59525 44100.00000 0 21209411.238 11086970.758 8613545.786 10 0 59525 45000.00000 0 20034208.067 10659905.118 11492042.669 10 0 59525 45900.00000 0 18497127.658 10247894.752 14145445.589 10 0 59525 46800.00000 0 16627277.078 9902999.575 16521917.751 10 0 59525 47700.00000 0 14465349.049 9671688.310 18575141.751 10 0 59525 48600.00000 0 12062091.092 9592702.894 20265230.618 10 0 59525 49500.00000 0 9476362.882 9695273.309 21559501.624 10 0 59525 50400.00000 0 6772866.190 9997758.734 22433098.163 10 0 59525 51300.00000 0 4019645.060 10506771.594 22869448.988 10 0 59525 52200.00000 0 1285462.688 11216819.578 22860558.040 10 0 59525 53100.00000 0 -1362834.380 12110478.075 22407121.931 10 0 59525 54000.00000 0 -3862855.033 13159082.681 21518475.894 10 0 59525 54900.00000 0 -6159001.003 14323909.572 20212372.349 10 0 59525 55800.00000 0 -8204508.091 15557791.346 18514599.361 10 0 59525 56700.00000 0 -9963109.835 16807098.361 16458449.011 10 0 59525 57600.00000 0 -11410258.654 18014001.155 14084048.026 10 0 59525 58500.00000 0 -12533858.143 19118918.699 11437565.159 10 0 59525 59400.00000 0 -13334480.648 20063050.547 8570311.470 10 0 59525 60300.00000 0 -13825065.195 20790888.217 5537750.959 10 0 59525 61200.00000 0 -14030111.797 21252602.663 2398440.216 10 0 59525 62100.00000 0 -13984408.360 21406210.422 -787083.581 10 0 59525 63000.00000 0 -13731344.817 21219430.281 -3957446.552 10 0 59525 63900.00000 0 -13320885.345 20671155.083 -7051593.770 10 0 59525 64800.00000 0 -12807282.848 19752478.839 -10009936.798 10 0 59525 65700.00000 0 -12246629.944 18467237.094 -12775473.513 10 0 59525 66600.00000 0 -11694346.975 16832037.910 -15294861.015 10 0 59525 67500.00000 0 -11202710.072 14875780.983 -17519423.365 10 0 59525 68400.00000 0 -10818520.751 12638682.658 -19406076.725 10 0 59525 69300.00000 0 -10581013.109 10170844.368 -20918155.556 10 0 59525 70200.00000 0 -10520085.517 7530420.208 -22026124.868 10 0 59525 71100.00000 0 -10654931.116 4781455.637 -22708164.998 10 0 59525 72000.00000 0 -10993125.815 1991483.062 -22950616.952 10 0 59525 72900.00000 0 -11530214.352 -771029.598 -22748278.328 10 0 59525 73800.00000 0 -12249815.068 -3439274.399 -22104541.929 10 0 59525 74700.00000 0 -13124242.767 -5950636.965 -21031371.560 10 0 59525 75600.00000 0 -14115627.612 -8249063.687 -19549112.269 10 0 59525 76500.00000 0 -15177486.865 -10287163.646 -17686135.225 10 0 59525 77400.00000 0 -16256686.526 -12027956.150 -15478320.818 10 0 59525 78300.00000 0 -17295712.448 -13446188.694 -12968387.028 10 0 59525 79200.00000 0 -18235156.074 -14529167.578 -10205073.799 10 0 59525 80100.00000 0 -19016309.356 -15277063.623 -7242197.935 10 0 59525 81000.00000 0 -19583757.375 -15702677.898 -4137596.549 10 0 59525 81900.00000 0 -19887856.050 -15830675.933 -951980.391 10 0 59525 82800.00000 0 -19886986.314 -15696322.291 2252278.684 10 0 59525 83700.00000 0 -19549485.308 -15343769.881 5412399.776 10 0 59525 84600.00000 0 -18855168.907 -14823978.444 8466456.778 10 0 59525 85500.00000 0 -17796377.885 -14192353.386 11354625.539 10 0 59526 0.00000 0 -16378501.333 -13506208.811 14020386.221 10 0 59526 900.00000 0 -14619953.213 -12822165.840 16411655.533 10 0 59526 1800.00000 0 -12551605.234 -12193601.096 18481820.549 10 0 59526 2700.00000 0 -10215698.555 -11668255.309 20190657.111 10 0 59526 3600.00000 0 -7664284.015 -11286106.198 21505110.588 10 0 59526 4500.00000 0 -4957258.244 -11077596.116 22399925.586 10 0 59526 5400.00000 0 -2160080.652 -11062288.950 22858113.447 10 0 59526 6300.00000 0 658731.056 -11248011.368 22871250.570 10 0 59526 7200.00000 0 3430220.635 -11630512.015 22439604.433 10 0 59526 8100.00000 0 6087618.675 -12193649.816 21572087.938 10 0 59526 9000.00000 0 8568864.916 -12910099.956 20286046.070 10 0 59526 9900.00000 0 10818924.284 -13742544.523 18606882.021 10 0 59526 10800.00000 0 12791803.241 -14645294.836 16567532.640 10 0 59526 11700.00000 0 14452186.301 -15566275.253 14207805.479 10 0 59526 12600.00000 0 15776628.871 -16449283.925 11573591.843 10 0 59526 13500.00000 0 16754261.209 -17236435.446 8715971.886 10 0 59526 14400.00000 0 17386978.483 -17870683.652 5690229.202 10 0 59526 15300.00000 0 17689112.716 -18298320.340 2554793.531 10 0 59526 16200.00000 0 17686603.236 -18471347.185 -629869.165 10 0 59526 17100.00000 0 17415702.273 -18349623.837 -3802399.475 10 0 59526 18000.00000 0 16921270.626 -17902704.627 -6901700.059 10 0 59526 18900.00000 0 16254734.429 -17111288.787 -9868084.018 10 0 59526 19800.00000 0 15471787.332 -15968224.771 -12644396.522 10 0 59526 20700.00000 0 14629932.351 -14479026.994 -15177090.459 10 0 59526 21600.00000 0 13785964.000 -12661882.652 -17417237.788 10 0 59526 22500.00000 0 12993493.682 -10547146.448 -19321459.142 10 0 59526 23400.00000 0 12300619.856 -8176341.427 -20852755.238 10 0 59526 24300.00000 0 11747838.997 -5600703.822 -21981225.069 10 0 59526 25200.00000 0 11366284.165 -2879328.142 -22684657.226 10 0 59526 26100.00000 0 11176365.349 -76985.277 -22948982.339 10 0 59526 27000.00000 0 11186869.950 2738299.983 -22768576.553 10 0 59526 27900.00000 0 11394563.562 5497815.004 -22146408.022 10 0 59526 28800.00000 0 11784310.969 8134764.952 -21094020.807 10 0 59526 29700.00000 0 12329715.897 10586811.256 -19631353.296 10 0 59526 30600.00000 0 12994256.349 12798437.606 -17786391.171 10 0 59526 31500.00000 0 13732870.994 14723043.889 -15594658.369 10 0 59526 32400.00000 0 14493932.347 16324678.817 -13098552.871 10 0 59526 33300.00000 0 15221524.851 17579336.208 -10346537.902 10 0 59526 34200.00000 0 15857931.780 18475757.675 -7392202.873 10 0 59526 35100.00000 0 16346224.510 19015705.350 -4293211.909 10 0 59526 36000.00000 0 16632842.088 19213691.104 -1110161.152 10 0 59526 36900.00000 0 16670048.380 19096172.468 2094631.047 10 0 59526 37800.00000 0 16418158.688 18700249.296 5258374.814 10 0 59526 38700.00000 0 15847437.332 18071917.513 8319072.631 10 0 59526 39600.00000 0 14939582.103 17263956.247 11216767.974 10 0 59526 40500.00000 0 13688729.751 16333541.080 13894750.759 10 0 59526 41400.00000 0 12101938.050 15339688.226 16300692.809 10 0 59526 42300.00000 0 10199123.424 14340641.656 18387688.476 10 0 59526 43200.00000 0 8012457.192 13391317.069 20115178.425 10 0 59526 44100.00000 0 5585247.338 12540913.348 21449737.835 10 0 59526 45000.00000 0 2970354.972 11830793.797 22365713.936 10 0 59526 45900.00000 0 228214.357 11292726.684 22845701.750 10 0 59526 46800.00000 0 -2575458.288 10947558.080 22880850.871 10 0 59526 47700.00000 0 -5372169.543 10804370.577 22470999.990 10 0 59526 48600.00000 0 -8093261.567 10860160.054 21624639.602 10 0 59526 49500.00000 0 -10672524.050 11100040.359 20358706.750 10 0 59526 50400.00000 0 -13048697.612 11497963.463 18698218.791 10 0 59526 51300.00000 0 -15167766.719 12017921.235 16675755.963 10 0 59526 52200.00000 0 -16984949.851 12615575.375 14330804.886 10 0 59526 53100.00000 0 -18466307.917 13240244.984 11708977.331 10 0 59526 54000.00000 0 -19589908.198 13837167.211 8861120.237 10 0 59526 54900.00000 0 -20346499.548 14349936.020 5842334.340 10 0 59526 55800.00000 0 -20739674.486 14723017.503 2710919.952 10 0 59526 56700.00000 0 -20785514.699 14904237.783 -472730.847 10 0 59526 57600.00000 0 -20511737.174 14847141.338 -3647275.811 10 0 59526 58500.00000 0 -19956377.799 14513122.980 -6751577.915 10 0 59526 59400.00000 0 -19166067.719 13873246.252 -9725854.541 10 0 59526 60300.00000 0 -18193973.624 12909673.562 -12512800.864 10 0 59526 61200.00000 0 -17097486.444 11616648.967 -15058668.191 10 0 59526 62100.00000 0 -15935752.804 10000992.252 -17314278.877 10 0 59526 63000.00000 0 -14767149.895 8082082.239 -19235960.321 10 0 59526 63900.00000 0 -13646806.852 5891327.624 -20786381.548 10 0 59526 64800.00000 0 -12624274.154 3471143.899 -21935277.291 10 0 59526 65700.00000 0 -11741437.096 873474.770 -22660045.832 10 0 59526 66600.00000 0 -11030760.131 -1842084.896 -22946208.518 10 0 59526 67500.00000 0 -10513936.061 -4610491.143 -22787720.763 10 0 59526 68400.00000 0 -10200998.200 -7363690.650 -22187126.404 10 0 59526 69300.00000 0 -10089935.171 -10033199.954 -21155549.689 10 0 59526 70200.00000 0 -10166827.562 -12552719.234 -19712521.853 10 0 59526 71100.00000 0 -10406504.064 -14860672.903 -17885642.213 10 0 59526 72000.00000 0 -10773692.733 -16902570.765 -15710076.976 10 0 59526 72900.00000 0 -11224621.591 -18633089.768 -13227902.523 10 0 59526 73800.00000 0 -11709002.823 -20017786.953 -10487303.472 10 0 59526 74700.00000 0 -12172317.410 -21034368.827 -7541639.720 10 0 59526 75600.00000 0 -12558302.851 -21673460.908 -4448400.108 10 0 59526 76500.00000 0 -12811536.685 -21938842.361 -1268063.733 10 0 59526 77400.00000 0 -12880003.262 -21847133.951 1937107.121 10 0 59526 78300.00000 0 -12717531.100 -21426951.616 5104316.284 10 0 59526 79200.00000 0 -12285993.293 -20717561.873 8171497.594 10 0 59526 80100.00000 0 -11557173.622 -19767097.502 11078564.977 10 0 59526 81000.00000 0 -10514215.808 -18630411.709 13768620.716 10 0 59526 81900.00000 0 -9152591.923 -17366664.945 16189095.016 10 0 59526 82800.00000 0 -7480547.611 -16036750.157 18292791.902 10 0 59526 83700.00000 0 -5519005.022 -14700668.860 20038819.300 10 0 59526 84600.00000 0 -3300928.363 -13414971.725 21393384.370 10 0 59526 85500.00000 0 -870180.534 -12230373.657 22330438.803 10 0 59527 0.00000 0 1720078.722 -11189644.620 22832162.764 10 0 59527 900.00000 0 4409385.090 -10325863.847 22889280.266 10 0 59527 1800.00000 0 7132263.320 -9661110.297 22501201.928 10 0 59527 2700.00000 0 9820729.623 -9205639.534 21675996.281 10 0 59527 3600.00000 0 12406894.342 -8957579.244 20430192.533 10 0 59527 4500.00000 0 14825558.174 -8903151.436 18788421.993 10 0 59527 5400.00000 0 17016695.063 -9017407.971 16782907.726 10 0 59527 6300.00000 0 18927720.940 -9265444.798 14452814.508 10 0 59527 7200.00000 0 20515457.036 -9604040.991 11843473.288 10 0 59527 8100.00000 0 21747709.819 -9983651.688 9005496.070 10 0 59527 9000.00000 0 22604405.896 -10350670.387 5993798.563 10 0 59527 9900.00000 0 23078238.227 -10649865.618 2866549.097 10 0 59527 10800.00000 0 23174800.127 -10826890.637 -315937.016 10 0 59527 11700.00000 0 22912204.197 -10830762.521 -3492337.871 10 0 59527 12600.00000 0 22320203.714 -10616208.705 -6601480.089 10 0 59527 13500.00000 0 21438853.808 -10145784.638 -9583488.708 10 0 59527 14400.00000 0 20316767.814 -9391675.494 -12380912.237 10 0 59527 15300.00000 0 19009040.266 -8337107.696 -14939803.602 10 0 59527 16200.00000 0 17574921.110 -6977311.391 -17210738.560 10 0 59527 17100.00000 0 16075335.612 -5319992.822 -19149754.045 10 0 59527 18000.00000 0 14570350.756 -3385294.947 -20719189.888 10 0 59527 18900.00000 0 13116691.338 -1205244.915 -21888418.740 10 0 59527 19800.00000 0 11765407.376 1177292.497 -22634450.411 10 0 59527 20700.00000 0 10559789.017 3710116.325 -22942398.412 10 0 59527 21600.00000 0 9533615.711 6333588.021 -22805798.455 10 0 59527 22500.00000 0 8709813.567 8982852.738 -22226770.656 10 0 59527 23400.00000 0 8099578.731 11590294.767 -21216019.592 10 0 59527 24300.00000 0 7702005.992 14088127.892 -19792669.045 10 0 59527 25200.00000 0 7504241.082 16411014.583 -17983931.197 10 0 59527 26100.00000 0 7482153.372 18498605.115 -15824613.322 10 0 59527 27000.00000 0 7601503.383 20297889.746 -13356468.536 10 0 59527 27900.00000 0 7819557.982 21765263.550 -10627400.757 10 0 59527 28800.00000 0 8087086.142 22868214.485 -7690537.862 10 0 59527 29700.00000 0 8350650.728 23586560.650 -4603190.541 10 0 59527 30600.00000 0 8555097.864 23913181.583 -1425717.671 10 0 59527 31500.00000 0 8646135.768 23854210.127 1779677.896 10 0 59527 32400.00000 0 8572890.170 23428675.166 4950197.151 10 0 59527 33300.00000 0 8290323.803 22667609.797 8023708.724 10 0 59527 34200.00000 0 7761413.118 21612663.371 10940000.307 10 0 59527 35100.00000 0 6958986.058 20314278.076 13641989.655 10 0 59527 36000.00000 0 5867139.842 18829509.962 16076868.199 10 0 59527 36900.00000 0 4482176.641 17219590.008 18197152.191 10 0 59527 37800.00000 0 2813016.656 15547331.701 19961619.044 10 0 59527 38700.00000 0 881071.299 13874497.702 21336109.792 10 0 59527 39600.00000 0 -1280416.890 12259238.980 22294182.138 10 0 59527 40500.00000 0 -3627537.928 10753715.476 22817602.616 10 0 59527 41400.00000 0 -6107330.588 9401998.257 22896670.253 10 0 59527 42300.00000 0 -8659780.998 8238339.969 22530368.078 10 0 59527 43200.00000 0 -11220118.227 7285883.473 21726342.553 10 0 59527 44100.00000 0 -13721309.765 6555859.258 20500714.477 10 0 59527 45000.00000 0 -16096652.421 6047301.019 18877728.058 10 0 59527 45900.00000 0 -18282351.422 5747286.856 16889247.695 10 0 59527 46800.00000 0 -20219981.976 5631691.645 14574114.415 10 0 59527 47700.00000 0 -21858733.306 5666415.314 11977376.089 10 0 59527 48600.00000 0 -23157345.093 5809032.580 9149407.301 10 0 59527 49500.00000 0 -24085659.219 6010793.064 6144936.087 10 0 59527 50400.00000 0 -24625725.722 6218887.003 3021996.016 10 0 59527 51300.00000 0 -24772420.412 6378881.770 -159177.180 10 0 59527 52200.00000 0 -24533551.109 6437227.962 -3337284.753 10 0 59527 53100.00000 0 -23929450.055 6343731.686 -6451119.755 10 0 59527 54000.00000 0 -22992070.502 6053891.264 -9440717.642 10 0 59527 54900.00000 0 -21763625.024 5531002.293 -12248482.963 10 0 59527 55800.00000 0 -20294821.302 4747944.356 -14820272.869 10 0 59527 56700.00000 0 -18642766.984 3688575.313 -17106418.970 10 0 59527 57600.00000 0 -16868628.390 2348674.639 -19062669.963 10 0 59527 58500.00000 0 -15035137.776 736395.065 -20651038.412 10 0 59527 59400.00000 0 -13204050.100 -1127798.744 -21840536.465 10 0 59527 60300.00000 0 -11433652.702 -3211705.421 -22607786.633 10 0 59527 61200.00000 0 -9776429.787 -5472456.217 -22937495.353 10 0 59527 62100.00000 0 -8276977.973 -7858038.565 -22822778.979 10 0 59527 63000.00000 0 -6970259.795 -10309215.167 -22265333.831 10 0 59527 63900.00000 0 -5880269.042 -12761762.957 -21275444.352 10 0 59527 64800.00000 0 -5019165.519 -15148942.232 -19871826.042 10 0 59527 65700.00000 0 -4386917.907 -17404095.499 -18081302.788 10 0 59527 66600.00000 0 -3971472.528 -19463268.609 -15938321.473 10 0 59527 67500.00000 0 -3749443.634 -21267744.448 -13484310.250 10 0 59527 68400.00000 0 -3687298.425 -22766381.592 -10766890.449 10 0 59527 69300.00000 0 -3742988.287 -23917657.251 -7838955.885 10 0 59527 70200.00000 0 -3867957.691 -24691325.518 -4757636.944 10 0 59527 71100.00000 0 -4009444.888 -25069617.686 -1583170.061 10 0 59527 72000.00000 0 -4112974.838 -25047930.906 1622303.653 10 0 59527 72900.00000 0 -4124935.550 -24634973.689 4795984.715 10 0 59527 73800.00000 0 -3995124.613 -23852360.698 7875678.986 10 0 59527 74700.00000 0 -3679153.670 -22733673.801 10801050.410 10 0 59527 75600.00000 0 -3140604.692 -21323030.175 13514834.709 10 0 59527 76500.00000 0 -2352843.052 -19673220.144 15963987.008 10 0 59527 77400.00000 0 -1300407.912 -17843496.425 18100738.144 10 0 59527 78300.00000 0 20080.507 -15897111.423 19883537.214 10 0 59527 79200.00000 0 1599535.505 -13898709.652 21277861.077 10 0 59527 80100.00000 0 3416555.862 -11911687.818 22256875.118 10 0 59527 81000.00000 0 5438107.200 -9995635.350 22801933.567 10 0 59527 81900.00000 0 7620701.937 -8203963.397 22902911.578 10 0 59527 82800.00000 0 9912025.886 -6581821.057 22558365.222 10 0 59527 83700.00000 0 12252941.166 -5164384.013 21775519.283 10 0 59527 84600.00000 0 14579779.916 -3975584.024 20570086.243 10 0 59527 85500.00000 0 16826831.979 -3027328.379 18965923.019 10 0 59528 0.00000 0 18928922.542 -2319237.435 16994535.062 10 0 59528 900.00000 0 20823974.297 -1838906.190 14694438.513 10 0 59528 1800.00000 0 22455446.327 -1562675.548 12110397.246 10 0 59528 2700.00000 0 23774554.570 -1456875.976 9292546.969 10 0 59528 3600.00000 0 24742181.594 -1479489.719 6295426.212 10 0 59528 4500.00000 0 25330400.631 -1582159.829 3176931.631 10 0 59528 5400.00000 0 25523553.298 -1712461.192 -2783.128 10 0 59528 6300.00000 0 25318839.043 -1816338.709 -3182445.255 10 0 59528 7200.00000 0 24726394.007 -1840611.723 -6300817.226 10 0 59528 8100.00000 0 23768857.142 -1735441.299 -9297847.990 10 0 59528 9000.00000 0 22480441.932 -1456658.876 -12115801.215 10 0 59528 9900.00000 0 20905551.656 -967860.447 -14700341.265 10 0 59528 10800.00000 0 19096994.099 -242179.767 -17001558.458 10 0 59528 11700.00000 0 17113867.593 736333.233 -18974915.913 10 0 59528 12600.00000 0 15019203.369 1971787.075 -20582101.396 10 0 59528 13500.00000 0 12877459.198 3456016.825 -21791768.792 10 0 59528 14400.00000 0 10751965.518 5168666.527 -22580155.303 10 0 59528 15300.00000 0 8702427.864 7077786.274 -22931562.002 10 0 59528 16200.00000 0 6782587.724 9140923.419 -22838687.256 10 0 59528 17100.00000 0 5038138.372 11306667.177 -22302804.598 10 0 59528 18000.00000 0 3504982.780 13516586.688 -21333778.918 10 0 59528 18900.00000 0 2207907.441 15707485.755 -19949917.559 10 0 59528 19800.00000 0 1159729.428 17813883.201 -18177655.757 10 0 59528 20700.00000 0 360954.966 19770616.973 -16051079.159 10 0 59528 21600.00000 0 -200033.571 21515463.551 -13611289.615 10 0 59528 22500.00000 0 -546267.702 22991661.967 -10905624.029 10 0 59528 23400.00000 0 -710987.959 24150234.297 -7986739.877 10 0 59528 24300.00000 0 -735994.130 24952002.093 -4911584.540 10 0 59528 25200.00000 0 -669620.626 25369210.277 -1740268.960 10 0 59528 26100.00000 0 -564424.201 25386686.476 1465130.801 10 0 59528 27000.00000 0 -474684.670 25002483.781 4641818.264 10 0 59528 27900.00000 0 -453828.199 24227977.543 7727540.049 10 0 59528 28800.00000 0 -551886.584 23087411.039 10661839.834 10 0 59528 29700.00000 0 -813104.534 21616909.395 13387274.667 10 0 59528 30600.00000 0 -1273800.337 19863004.801 15850566.506 10 0 59528 31500.00000 0 -1960573.733 17880737.706 18003663.648 10 0 59528 32400.00000 0 -2888939.027 15731417.061 19804689.440 10 0 59528 33300.00000 0 -4062442.225 13480137.162 21218758.790 10 0 59528 34200.00000 0 -5472299.251 11193158.511 22218646.610 10 0 59528 35100.00000 0 -7097569.256 8935264.930 22785296.258 10 0 59528 36000.00000 0 -8905853.733 6767208.929 22908160.004 10 0 59528 36900.00000 0 -10854489.577 4743352.303 22585367.469 10 0 59528 37800.00000 0 -12892183.532 2909599.263 21823721.754 10 0 59528 38700.00000 0 -14961017.361 1301705.781 20638526.492 10 0 59528 39600.00000 0 -16998738.210 -55967.845 19053250.261 10 0 59528 40500.00000 0 -18941237.665 -1151213.575 17099037.626 10 0 59528 41400.00000 0 -20725116.127 -1984214.535 14814078.552 10 0 59528 42300.00000 0 -22290226.620 -2567260.954 12242850.192 10 0 59528 43200.00000 0 -23582093.874 -2923959.264 9435246.693 10 0 59528 44100.00000 0 -24554110.404 -3087970.951 6445614.205 10 0 59528 45000.00000 0 -25169420.929 -3101336.377 3331709.433 10 0 59528 45900.00000 0 -25402419.606 -3012455.230 153600.851 10 0 59528 46800.00000 0 -25239800.544 -2873808.461 -3027467.727 10 0 59528 47700.00000 0 -24681120.031 -2739516.544 -6150231.227 10 0 59528 48600.00000 0 -23738848.566 -2662834.971 -9154555.056 10 0 59528 49500.00000 0 -22437911.053 -2693690.148 -11982564.859 10 0 59528 50400.00000 0 -20814733.765 -2876357.039 -14579734.948 10 0 59528 51300.00000 0 -18915836.315 -3247374.251 -16895916.870 10 0 59528 52200.00000 0 -16796024.822 -3833782.841 -18886290.444 10 0 59528 53100.00000 0 -14516258.449 -4651762.448 -20512220.545 10 0 59528 54000.00000 0 -12141274.629 -5705722.714 -21742004.286 10 0 59528 54900.00000 0 -9737068.241 -6987890.091 -22551494.580 10 0 59528 55800.00000 0 -7368326.472 -8478410.346 -22924587.645 10 0 59528 56700.00000 0 -5095923.514 -10145966.447 -22853563.889 10 0 59528 57600.00000 0 -2974577.644 -11948890.534 -22339273.607 10 0 59528 58500.00000 0 -1050767.697 -13836728.049 -21391161.280 10 0 59528 59400.00000 0 639003.817 -15752193.025 -20027124.870 10 0 59528 60300.00000 0 2069527.111 -17633436.342 -18273209.434 10 0 59528 61200.00000 0 3227723.814 -19416534.447 -16163137.594 10 0 59528 62100.00000 0 4112970.363 -21038095.502 -13737682.897 10 0 59528 63000.00000 0 4736890.038 -22437873.321 -11043895.656 10 0 59528 63900.00000 0 5122620.209 -23561277.654 -8134194.703 10 0 59528 64800.00000 0 5303584.365 -24361672.488 -5065342.023 10 0 59528 65700.00000 0 5321820.485 -24802362.035 -1897320.605 10 0 59528 66600.00000 0 5225937.278 -24858176.839 1307861.035 10 0 59528 67500.00000 0 5068786.985 -24516589.414 4487411.931 10 0 59528 68400.00000 0 4904956.463 -23778309.352 7579021.956 10 0 59528 69300.00000 0 4788186.827 -22657330.746 10522116.970 10 0 59528 70200.00000 0 4768835.293 -21180429.237 13259077.697 10 0 59528 71100.00000 0 4891490.947 -19386130.394 15736395.138 10 0 59528 72000.00000 0 5192849.034 -17323194.687 17905737.072 10 0 59528 72900.00000 0 5699936.439 -15048685.420 19724902.854 10 0 59528 73800.00000 0 6428764.974 -12625703.913 21158646.905 10 0 59528 74700.00000 0 7383469.623 -10120890.167 22179354.786 10 0 59528 75600.00000 0 8555967.282 -7601796.445 22767559.756 10 0 59528 76500.00000 0 9926148.576 -5134245.473 22912291.634 10 0 59528 77400.00000 0 11462592.181 -2779784.468 22611253.691 10 0 59528 78300.00000 0 13123768.944 -593340.649 21870827.164 10 0 59528 79200.00000 0 14859682.627 1378825.899 20705906.412 10 0 59528 80100.00000 0 16613876.309 3100789.691 19139571.015 10 0 59528 81000.00000 0 18325718.909 4548182.188 17202603.990 10 0 59528 81900.00000 0 19932875.652 5708922.698 14932867.739 10 0 59528 82800.00000 0 21373859.487 6583432.105 12374551.625 10 0 59528 83700.00000 0 22590558.075 7184325.124 9577306.790 10 0 59528 84600.00000 0 23530633.021 7535598.014 6595285.320 10 0 59528 85500.00000 0 24149693.492 7671348.739 3486102.077 99